Weather History for Houghton, MI

Change the Weather History Date:

Thursday, February 7, 2013

  Actual Average Record
Temperature  
Mean Temperature 18 °F -  
Max Temperature 23 °F 21 °F 41 °F (1987)
Min Temperature 12 °F 6 °F -11 °F (1962)
Degree Days  
Heating Degree Days 46    
Moisture  
Dew Point 16 °F    
Average Humidity 87    
Maximum Humidity 93    
Minimum Humidity 73    
Precipitation  
Precipitation 0.01 in - - ()
Sea Level Pressure  
Sea Level Pressure 30.20 in    
Wind  
Wind Speed 8 mph (ENE)    
Max Wind Speed 17 mph    
Max Gust Speed 24 mph    
Visibility 6 miles    
Events Snow    
Averages and records for this station are not official NWS values.
T = Trace of Precipitation, MM = Missing Value Source: NWS Daily Summary

Daily Weather History Graph

Daily Weather History Graph

Search for Another Location

Airport:

Trip Planner

Search our weather history database for the weather conditions in past years. The results will help you decide how hot, cold, wet, or windy it might be!

Date:

Astronomy

Feb. 07, 2013 Rise Set
Actual Time 8:10 AM EST 6:06 PM EST
Civil Twilight 7:38 AM EST 6:38 PM EST
Nautical Twilight 7:02 AM EST 7:14 PM EST
Astronomical Twilight 6:26 AM EST 7:50 PM EST
Moon 5:56 AM EST (2/7) 3:24 PM EST (2/7)
Length of Visible Light 10h 59m
Length of Day
9h 55m
Waning Crescent, 9% of the Moon is Illuminated
Feb 7
Waning Crescent
Feb 10
New
Feb 17
First Quarter
Feb 25
Full
Mar 4
Last Quarter

Hourly Weather History & Observations

Time (EST) Temp. Windchill Dew Point Humidity Pressure Visibility Wind Dir Wind Speed Gust Speed Precip Events Conditions
12:07 AM 17.6 °F 7.3 °F 14.0 °F 86% 30.13 in 2.5 mi ENE 8.1 mph - 0.00 in Snow Light Snow
12:36 AM 17.6 °F 7.3 °F 14.0 °F 86% 30.14 in 1.8 mi ENE 8.1 mph - 0.00 in Snow Light Snow
12:53 AM 17.1 °F 5.8 °F 15.1 °F 92% 30.21 in 1.8 mi East 9.2 mph - 0.00 in Snow Light Snow
1:02 AM 17.6 °F 7.3 °F 15.8 °F 93% 30.14 in 2.0 mi ENE 8.1 mph - 0.00 in Snow Light Snow
1:20 AM 17.6 °F 7.3 °F 15.8 °F 93% 30.13 in 3.0 mi East 8.1 mph - 0.00 in Snow Light Snow
1:53 AM 17.1 °F 7.6 °F 15.1 °F 92% 30.20 in 4.0 mi ENE 6.9 mph - 0.00 in Snow Light Snow
2:28 AM 17.6 °F 8.2 °F 15.8 °F 93% 30.14 in 7.0 mi ENE 6.9 mph - 0.00 in Snow Light Snow
2:35 AM 17.6 °F 8.2 °F 15.8 °F 93% 30.14 in 6.0 mi ENE 6.9 mph - 0.00 in Snow Light Snow
2:46 AM 17.6 °F 7.3 °F 15.8 °F 93% 30.14 in 8.0 mi ENE 8.1 mph - 0.00 in Snow Light Snow
2:53 AM 18.0 °F 7.7 °F 15.1 °F 88% 30.21 in 8.0 mi ENE 8.1 mph - 0.00 in Snow Light Snow
3:53 AM 18.0 °F 8.7 °F 16.0 °F 92% 30.20 in 7.0 mi East 6.9 mph - 0.00 in Snow Light Snow
4:39 AM 17.6 °F 9.3 °F 15.8 °F 93% 30.12 in 10.0 mi East 5.8 mph - 0.00 in   Overcast
4:53 AM 18.0 °F 9.8 °F 16.0 °F 92% 30.19 in 10.0 mi East 5.8 mph - 0.00 in   Overcast
5:00 AM 17.6 °F 10.7 °F 15.8 °F 93% 30.12 in 10.0 mi East 4.6 mph - N/A   Overcast
5:53 AM 19.0 °F 11.1 °F 17.1 °F 92% 30.19 in 10.0 mi ENE 5.8 mph - N/A   Overcast
6:20 AM 19.4 °F 12.8 °F 17.6 °F 93% 30.13 in 10.0 mi ENE 4.6 mph - N/A   Overcast
6:53 AM 19.9 °F 13.4 °F 17.1 °F 89% 30.19 in 10.0 mi ENE 4.6 mph - N/A   Overcast
7:53 AM 21.0 °F 11.4 °F 18.0 °F 88% 30.19 in 10.0 mi NE 8.1 mph - N/A   Overcast
8:08 AM 21.2 °F 10.9 °F 19.4 °F 93% 30.13 in 7.0 mi ENE 9.2 mph - 0.00 in Snow Light Snow
8:53 AM 21.0 °F 13.4 °F 19.0 °F 92% 30.21 in 6.0 mi East 5.8 mph - 0.00 in Snow Light Snow
9:24 AM 21.2 °F 14.9 °F 19.4 °F 93% 30.15 in 3.0 mi East 4.6 mph - 0.00 in Snow Light Snow
9:30 AM 21.2 °F 12.6 °F 19.4 °F 93% 30.16 in 2.5 mi ENE 6.9 mph - 0.00 in Snow Light Snow
9:53 AM 23.0 °F 13.9 °F 19.9 °F 88% 30.22 in 2.5 mi East 8.1 mph - 0.00 in Snow Light Snow
10:08 AM 23.0 °F 12.4 °F 21.2 °F 93% 30.17 in 1.2 mi East 10.4 mph - 0.00 in Snow Light Snow
10:27 AM 23.0 °F 11.7 °F 21.2 °F 93% 30.17 in 1.0 mi East 11.5 mph - 0.00 in Snow Light Snow
10:53 AM 23.0 °F 9.2 °F 19.9 °F 88% 30.23 in 1.0 mi East 17.3 mph 24.2 mph 0.01 in Snow Light Snow
11:27 AM 21.2 °F 7.8 °F 19.4 °F 93% 30.18 in 2.0 mi East 15.0 mph 23.0 mph 0.00 in Snow Light Snow
11:36 AM 21.2 °F 9.5 °F 19.4 °F 93% 30.19 in 2.5 mi East 11.5 mph 23.0 mph 0.00 in Snow Light Snow
11:47 AM 21.2 °F 8.3 °F 19.4 °F 93% 30.18 in 3.0 mi East 13.8 mph 23.0 mph 0.00 in Snow Light Snow
11:53 AM 21.9 °F 7.8 °F 19.0 °F 89% 30.25 in 2.5 mi ENE 17.3 mph 24.2 mph 0.00 in Snow Light Snow
12:32 PM 21.2 °F 10.1 °F 17.6 °F 86% 30.19 in 3.0 mi East 10.4 mph 23.0 mph 0.00 in Snow Light Snow
12:49 PM 21.2 °F 8.3 °F 17.6 °F 86% 30.18 in 4.0 mi East 13.8 mph - 0.00 in Snow Light Snow
12:53 PM 21.9 °F 9.8 °F 17.1 °F 82% 30.25 in 5.0 mi ENE 12.7 mph 20.7 mph 0.00 in Snow Light Snow
1:53 PM 21.0 °F 9.9 °F 16.0 °F 81% 30.24 in 9.0 mi ENE 10.4 mph 20.7 mph 0.00 in Snow Light Snow
2:53 PM 21.0 °F 8.1 °F 15.1 °F 78% 30.23 in 7.0 mi ENE 13.8 mph - 0.00 in Snow Light Snow
3:53 PM 21.0 °F 8.6 °F 14.0 °F 74% 30.24 in 7.0 mi ENE 12.7 mph - 0.00 in Snow Light Snow
4:53 PM 19.9 °F 8.6 °F 12.9 °F 74% 30.24 in 8.0 mi ENE 10.4 mph - 0.00 in Snow Light Snow
5:53 PM 19.9 °F 8.6 °F 14.0 °F 78% 30.25 in 7.0 mi ENE 10.4 mph - 0.00 in Snow Light Snow
6:53 PM 19.0 °F 8.2 °F 12.0 °F 74% 30.28 in 9.0 mi NE 9.2 mph - 0.00 in   Overcast
7:40 PM 17.6 °F 6.4 °F 12.2 °F 79% 30.23 in 10.0 mi NE 9.2 mph - 0.00 in Snow Light Snow
7:53 PM 18.0 °F 7.7 °F 12.0 °F 78% 30.29 in 10.0 mi NE 8.1 mph - 0.00 in   Overcast
8:53 PM 16.0 °F 6.3 °F 10.0 °F 77% 30.29 in 10.0 mi NNE 6.9 mph - N/A   Overcast
9:25 PM 15.8 °F 5.1 °F 8.6 °F 73% 30.23 in 10.0 mi NNE 8.1 mph - N/A   Overcast
9:53 PM 15.1 °F 5.2 °F 10.0 °F 80% 30.30 in 4.0 mi NNE 6.9 mph - 0.00 in Snow Light Snow
10:53 PM 14.0 °F 5.1 °F 8.1 °F 77% 30.30 in 10.0 mi NNE 5.8 mph - 0.00 in   Overcast
11:53 PM 12.0 °F 2.7 °F 7.0 °F 80% 30.30 in 10.0 mi NNE 5.8 mph - N/A   Overcast